Location: Brookfield Center
(41.2406°N, 80.5579°W)
Time: 19:11:18
(UTC+00:00)

Cosmos 724 - Pass Details

Date: 18 January 2020
Orbit: 864 x 931 km, 65.6° (Epoch: 27 February)

Event Time Altitude Azimuth Distance (km) Brightness Sun altitude
Rises 00:36:56 0° 217° (SW) 3,517 8.0 -25.4°
Reaches altitude 10° 00:39:28 10° 219° (SW) 2,570 7.3 -25.8°
Maximum altitude 00:45:25 70° 303° (WNW) 945 4.5 -27.0°
Enters shadow 00:47:03 48° 9° (N) 1,150 4.7 -27.3°
